When you browse on this site, cookies collect data to enhance your experience and personalize the content and advertising you see.
Visit our Privacy Policy to learn more. By continuing to use the site, you agree to this use of cookies and data.
  • In Hungary
  • List of Countries
  • For 7 days
  • Water Temperature
  • Weather Map
  • News
  • Weather Widgets
  • user-avatar
    Login

    Hourly Weather Thiene

    Today, 11 December, Wednesday

    Time Temperature Precipitation Wind Pressure Humidity
    00:00 +5°C° 0 mm 1 mps 754 mmHg 55%
    01:00 +4°C° 0 mm 1 mps 753 mmHg 55%
    02:00 +4°C° 0 mm 1 mps 753 mmHg 54%
    03:00 +4°C° 0 mm 1 mps 752 mmHg 53%
    04:00 +4°C° 0 mm 1 mps 751 mmHg 52%
    05:00 +4°C° 0 mm 1 mps 751 mmHg 51%
    06:00 +3°C° 0 mm 1 mps 751 mmHg 50%
    07:00 +3°C° 0 mm 1 mps 750 mmHg 49%
    08:00 +4°C° 0 mm 1 mps 750 mmHg 46%
    09:00 +5°C° 0 mm 1 mps 750 mmHg 44%
    10:00 +5°C° 0 mm 0 mps 749 mmHg 41%
    11:00 +6°C° 0 mm 0 mps 748 mmHg 40%
    12:00 +7°C° 0 mm 0 mps 747 mmHg 39%
    13:00 +7°C° 0 mm 0 mps 746 mmHg 38%
    14:00 +7°C° 0 mm 0 mps 746 mmHg 44%
    15:00 +6°C° 0 mm 0 mps 745 mmHg 49%
    16:00 +5°C° 0 mm 0 mps 744 mmHg 55%
    17:00 +4°C° 0 mm 0 mps 744 mmHg 54%
    18:00 +4°C° 0 mm 0 mps 744 mmHg 54%
    19:00 +4°C° 0 mm 0 mps 744 mmHg 54%
    20:00 +3°C° 0 mm 0 mps 743 mmHg 54%
    21:00 +3°C° 0 mm 0 mps 743 mmHg 54%
    22:00 +3°C° 0 mm 0 mps 743 mmHg 54%
    23:00 +3°C° 0 mm 0 mps 742 mmHg 54%

    Tomorrow, 12 December, Thursday

    Time Temperature Precipitation Wind Pressure Humidity
    00:00 +4°C° 0 mm 1 mps 742 mmHg 53%
    01:00 +4°C° 0 mm 1 mps 742 mmHg 53%
    02:00 +4°C° 0.3 mm 1 mps 741 mmHg 56%
    03:00 +4°C° 0.3 mm 1 mps 741 mmHg 58%
    04:00 +3°C° 0.3 mm 0 mps 740 mmHg 61%
    05:00 +3°C° 0.4 mm 1 mps 740 mmHg 64%
    06:00 +3°C° 0.4 mm 1 mps 740 mmHg 66%
    07:00 +3°C° 0.4 mm 1 mps 740 mmHg 69%
    08:00 +3°C° 0.1 mm 1 mps 741 mmHg 70%
    09:00 +4°C° 0.1 mm 1 mps 741 mmHg 70%
    10:00 +4°C° 0.1 mm 1 mps 741 mmHg 71%
    11:00 +5°C° 0 mm 1 mps 741 mmHg 69%
    12:00 +5°C° 0 mm 1 mps 741 mmHg 67%
    13:00 +6°C° 0 mm 1 mps 740 mmHg 65%
    14:00 +6°C° 0 mm 1 mps 740 mmHg 69%
    15:00 +5°C° 0 mm 1 mps 740 mmHg 74%
    16:00 +5°C° 0 mm 1 mps 740 mmHg 78%
    17:00 +4°C° 0 mm 1 mps 740 mmHg 80%
    18:00 +4°C° 0 mm 1 mps 740 mmHg 83%
    19:00 +3°C° 0 mm 1 mps 741 mmHg 85%
    20:00 +3°C° 0 mm 1 mps 741 mmHg 85%
    21:00 +3°C° 0 mm 1 mps 741 mmHg 85%
    22:00 +3°C° 0 mm 1 mps 740 mmHg 85%
    23:00 +3°C° 0 mm 1 mps 740 mmHg 85%

    Day after tomorrow, 13 December, Friday

    Time Temperature Precipitation Wind Pressure Humidity
    00:00 +3°C° 0 mm 1 mps 740 mmHg 84%
    01:00 +2°C° 0 mm 0 mps 739 mmHg 84%
    02:00 +2°C° 0 mm 0 mps 738 mmHg 84%
    03:00 +2°C° 0 mm 0 mps 738 mmHg 83%
    04:00 +2°C° 0 mm 0 mps 737 mmHg 83%
    05:00 +2°C° 0 mm 0 mps 736 mmHg 83%
    06:00 +2°C° 0 mm 1 mps 736 mmHg 84%
    07:00 +2°C° 0 mm 1 mps 735 mmHg 85%
    08:00 +3°C° 0.3 mm 1 mps 734 mmHg 84%
    09:00 +2°C° 0.3 mm 2 mps 733 mmHg 83%
    10:00 +2°C° 0.3 mm 2 mps 732 mmHg 82%
    11:00 +2°C° 2.1 mm 2 mps 731 mmHg 86%
    12:00 +2°C° 2.1 mm 2 mps 730 mmHg 90%
    13:00 +2°C° 2.1 mm 2 mps 729 mmHg 94%
    14:00 +2°C° 0.4 mm 2 mps 728 mmHg 93%
    15:00 +3°C° 0.4 mm 2 mps 728 mmHg 93%
    16:00 +3°C° 0.4 mm 2 mps 727 mmHg 93%
    17:00 +2°C° 0 mm 2 mps 728 mmHg 90%
    18:00 +2°C° 0 mm 2 mps 729 mmHg 87%
    19:00 +2°C° 0 mm 2 mps 729 mmHg 85%
    20:00 +2°C° 0 mm 2 mps 730 mmHg 83%
    21:00 +2°C° 0 mm 2 mps 731 mmHg 81%
    22:00 +2°C° 0 mm 2 mps 733 mmHg 78%
    23:00 +2°C° 0 mm 2 mps 734 mmHg 76%

    14 December, Saturday

    Time Temperature Precipitation Wind Pressure Humidity
    00:00 +1°C° 0 mm 2 mps 735 mmHg 74%
    01:00 +1°C° 0 mm 2 mps 736 mmHg 72%
    02:00 +1°C° 0 mm 2 mps 736 mmHg 71%
    03:00 +1°C° 0 mm 2 mps 736 mmHg 70%
    04:00 +1°C° 0 mm 2 mps 737 mmHg 69%
    05:00 +1°C° 0 mm 2 mps 737 mmHg 68%
    06:00 +1°C° 0 mm 2 mps 738 mmHg 68%
    07:00 +1°C° 0 mm 2 mps 739 mmHg 67%
    08:00 +3°C° 0 mm 1 mps 739 mmHg 66%
    09:00 +4°C° 0 mm 1 mps 740 mmHg 66%
    10:00 +6°C° 0 mm 1 mps 740 mmHg 65%
    11:00 +5°C° 0 mm 0 mps 740 mmHg 65%
    12:00 +6°C° 0 mm 0 mps 741 mmHg 66%
    13:00 +7°C° 0 mm 0 mps 741 mmHg 67%
    14:00 +6°C° 0 mm 0 mps 741 mmHg 69%
    15:00 +5°C° 0 mm 0 mps 741 mmHg 72%
    16:00 +4°C° 0 mm 0 mps 742 mmHg 75%
    17:00 +4°C° 0 mm 0 mps 743 mmHg 74%
    18:00 +5°C° 0 mm 1 mps 743 mmHg 73%
    19:00 +4°C° 0 mm 1 mps 744 mmHg 73%
    20:00 +4°C° 0 mm 1 mps 744 mmHg 72%
    21:00 +4°C° 0 mm 1 mps 745 mmHg 71%
    22:00 +4°C° 0 mm 1 mps 745 mmHg 70%
    23:00 +4°C° 0 mm 1 mps 745 mmHg 70%

    15 December, Sunday

    Time Temperature Precipitation Wind Pressure Humidity
    00:00 +4°C° 0 mm 1 mps 746 mmHg 70%
    01:00 +4°C° 0 mm 1 mps 746 mmHg 70%
    02:00 +4°C° 0 mm 1 mps 746 mmHg 70%
    03:00 +4°C° 0 mm 1 mps 746 mmHg 71%
    04:00 +4°C° 0 mm 1 mps 746 mmHg 71%
    05:00 +4°C° 0 mm 1 mps 746 mmHg 72%
    06:00 +4°C° 0 mm 1 mps 746 mmHg 73%
    07:00 +4°C° 0 mm 1 mps 747 mmHg 74%
    08:00 +5°C° 0 mm 1 mps 747 mmHg 74%
    09:00 +5°C° 0 mm 0 mps 747 mmHg 73%
    10:00 +6°C° 0 mm 0 mps 748 mmHg 73%
    11:00 +6°C° 0 mm 0 mps 748 mmHg 74%
    12:00 +6°C° 0 mm 0 mps 748 mmHg 76%
    13:00 +7°C° 0 mm 0 mps 747 mmHg 77%
    14:00 +7°C° 0 mm 0 mps 748 mmHg 79%
    15:00 +6°C° 0 mm 0 mps 748 mmHg 81%
    16:00 +6°C° 0 mm 0 mps 748 mmHg 83%
    17:00 +6°C° 0 mm 0 mps 749 mmHg 83%
    18:00 +5°C° 0 mm 0 mps 749 mmHg 83%
    19:00 +5°C° 0 mm 0 mps 750 mmHg 84%
    20:00 +5°C° 0 mm 0 mps 750 mmHg 84%
    21:00 +5°C° 0 mm 0 mps 750 mmHg 84%
    22:00 +5°C° 0 mm 0 mps 751 mmHg 83%
    23:00 +5°C° 0 mm 0 mps 751 mmHg 83%

    16 December, Monday

    Time Temperature Precipitation Wind Pressure Humidity
    00:00 +6°C° 0 mm 0 mps 751 mmHg 83%
    01:00 +6°C° 0 mm 0 mps 751 mmHg 83%
    02:00 +6°C° 0 mm 0 mps 751 mmHg 83%
    03:00 +6°C° 0 mm 0 mps 752 mmHg 84%
    04:00 +6°C° 0 mm 0 mps 752 mmHg 84%
    05:00 +6°C° 0 mm 0 mps 752 mmHg 84%
    06:00 +6°C° 0 mm 0 mps 752 mmHg 84%
    07:00 +6°C° 0 mm 0 mps 752 mmHg 84%
    08:00 +6°C° 0 mm 0 mps 752 mmHg 83%
    09:00 +7°C° 0 mm 0 mps 753 mmHg 82%
    10:00 +8°C° 0 mm 0 mps 753 mmHg 81%
    11:00 +8°C° 0 mm 0 mps 753 mmHg 80%
    12:00 +9°C° 0 mm 0 mps 752 mmHg 79%
    13:00 +10°C° 0 mm 0 mps 752 mmHg 78%
    14:00 +9°C° 0 mm 0 mps 752 mmHg 80%
    15:00 +8°C° 0 mm 0 mps 752 mmHg 82%
    16:00 +8°C° 0 mm 0 mps 752 mmHg 84%
    17:00 +8°C° 0 mm 0 mps 752 mmHg 84%
    18:00 +7°C° 0 mm 0 mps 752 mmHg 84%
    19:00 +8°C° 0 mm 1 mps 752 mmHg 85%
    20:00 +8°C° 0 mm 1 mps 753 mmHg 85%
    21:00 +8°C° 0 mm 1 mps 753 mmHg 85%
    22:00 +8°C° 0 mm 1 mps 753 mmHg 84%
    23:00 +8°C° 0 mm 1 mps 753 mmHg 84%
    Show more